sat.trackr.live / text

‹ back to catalog

KUIPER-00141

NORAD 65966 · 2025-228V

PAYLOAD ACTIVE UNKNOWN

§ Identity

Operator
Country
US
Launch date
2025-10-14
Launch site
AFETR
Launch vehicle
Mass (kg)
RCS (m²)

External: N2YO · Heavens-Above · Gunter

§ Orbital elements

Epoch: 2026-05-24T23:48:19.327104Z

Period
97.30 min
Inclination
51.9036°
Eccentricity
0.0000762
Mean motion
14.79941738 rev/d
Perigee alt
629.0 km
Apogee alt
630.0 km
Semi-major
7,007.6 km
B*
4.6892e-4
RAAN
3.2976°
Arg perigee
106.7199°
Mean anomaly
253.3847°
Rev number
3,480

§ Raw data

KUIPER-001411 65966U 25228V   26144.99189036  .00003356  00000+0  46892-3 0  99912 65966  51.9036   3.2976 0000762 106.7199 253.3847 14.79941738 34803

JSON: /api/v1/satellites/65966 · /tle

For live sub-satellite position, see the globe view (requires WebGL).

§ Visibility from observer

Set your observer location to see the next 7 days of passes ≥ 10°. The values pass through the URL so the page stays shareable.

No JS? Fill the form by hand. The geolocation button needs JavaScript.